Time,TemperatureF,DewpointF,PressureIn,WindDirection,WindDirectionDegrees,WindSpeedMPH,WindSpeedGustMPH,Humidity,HourlyPrecipIn,Conditions,Clouds,dailyrainin,SoftwareType,DateUTC
2013-03-07 00:11:00,52.4,42.0,30.20,SSE,167,0.0,0.0,69,0.00,,,0.00,weatherlink.com 1.10,2013-03-07 06:11:00,
2013-03-07 00:26:00,51.6,42.0,30.20,SSE,167,0.0,0.0,71,0.00,,,0.00,weatherlink.com 1.10,2013-03-07 06:26:00,
2013-03-07 00:41:00,50.9,43.0,30.20,SSE,167,0.0,0.0,73,0.00,,,0.00,weatherlink.com 1.10,2013-03-07 06:41:00,
2013-03-07 00:56:00,50.4,43.0,30.20,SSE,167,0.0,0.0,75,0.00,,,0.00,weatherlink.com 1.10,2013-03-07 06:56:00,
2013-03-07 01:11:00,50.1,43.0,30.20,SSE,167,0.0,0.0,76,0.00,,,0.00,weatherlink.com 1.10,2013-03-07 07:11:00,
2013-03-07 01:41:00,49.4,43.0,30.19,SSE,167,0.0,0.0,78,0.00,,,0.00,weatherlink.com 1.10,2013-03-07 07:41:00,
2013-03-07 01:56:00,49.6,43.0,30.19,SSE,167,0.0,0.0,78,0.00,,,0.00,weatherlink.com 1.10,2013-03-07 07:56:00,
2013-03-07 02:11:00,48.9,43.0,30.19,SSE,167,0.0,0.0,79,0.00,,,0.00,weatherlink.com 1.10,2013-03-07 08:11:00,
2013-03-07 02:26:00,48.4,43.0,30.18,SSE,167,0.0,0.0,80,0.00,,,0.00,weatherlink.com 1.10,2013-03-07 08:26:00,
2013-03-07 02:41:00,47.7,42.0,30.17,SSE,167,0.0,0.0,81,0.00,,,0.00,weatherlink.com 1.10,2013-03-07 08:41:00,
2013-03-07 02:56:00,47.3,42.0,30.16,SSE,167,0.0,0.0,83,0.00,,,0.00,weatherlink.com 1.10,2013-03-07 08:56:00,
2013-03-07 03:11:00,47.4,43.0,30.16,SSE,167,0.0,0.0,83,0.00,,,0.00,weatherlink.com 1.10,2013-03-07 09:11:00,
2013-03-07 03:26:00,46.8,42.0,30.16,SSE,167,0.0,0.0,83,0.00,,,0.00,weatherlink.com 1.10,2013-03-07 09:26:00,
2013-03-07 03:41:00,46.5,43.0,30.16,SSE,167,0.0,0.0,86,0.00,,,0.00,weatherlink.com 1.10,2013-03-07 09:41:00,
2013-03-07 03:56:00,46.0,42.0,30.15,SSE,167,0.0,0.0,86,0.00,,,0.00,weatherlink.com 1.10,2013-03-07 09:56:00,
2013-03-07 04:11:00,45.8,42.0,30.15,SSE,167,0.0,0.0,87,0.00,,,0.00,weatherlink.com 1.10,2013-03-07 10:11:00,
2013-03-07 04:26:00,45.4,42.0,30.15,SSE,167,0.0,0.0,88,0.00,,,0.00,weatherlink.com 1.10,2013-03-07 10:26:00,
2013-03-07 04:41:00,45.5,42.0,30.15,SSE,167,0.0,0.0,88,0.00,,,0.00,weatherlink.com 1.10,2013-03-07 10:41:00,
2013-03-07 04:56:00,45.2,42.0,30.16,SSE,167,0.0,0.0,88,0.00,,,0.00,weatherlink.com 1.10,2013-03-07 10:56:00,
2013-03-07 05:11:00,45.8,42.0,30.17,SSE,167,0.0,0.0,87,0.00,,,0.00,weatherlink.com 1.10,2013-03-07 11:11:00,
2013-03-07 05:27:00,45.7,42.0,30.17,SSE,167,0.0,0.0,87,0.00,,,0.00,weatherlink.com 1.10,2013-03-07 11:27:00,
2013-03-07 05:42:00,45.6,42.0,30.17,SSE,167,0.0,1.0,87,0.00,,,0.00,weatherlink.com 1.10,2013-03-07 11:42:00,
2013-03-07 05:57:00,45.2,42.0,30.17,SSE,167,0.0,0.0,87,0.00,,,0.00,weatherlink.com 1.10,2013-03-07 11:57:00,
2013-03-07 06:12:00,45.0,41.0,30.17,SSE,167,0.0,0.0,87,0.00,,,0.00,weatherlink.com 1.10,2013-03-07 12:12:00,
2013-03-07 06:27:00,45.0,42.0,30.17,SSE,167,0.0,0.0,88,0.00,,,0.00,weatherlink.com 1.10,2013-03-07 12:27:00,
2013-03-07 06:42:00,45.1,42.0,30.18,SSE,167,0.0,1.0,88,0.00,,,0.00,weatherlink.com 1.10,2013-03-07 12:42:00,
2013-03-07 06:57:00,45.1,42.0,30.19,SSE,167,0.0,0.0,87,0.00,,,0.00,weatherlink.com 1.10,2013-03-07 12:57:00,
2013-03-07 07:12:00,45.7,42.0,30.19,SSE,167,0.0,1.0,88,0.00,,,0.00,weatherlink.com 1.10,2013-03-07 13:12:00,
2013-03-07 07:27:00,47.1,44.0,30.20,SSE,167,0.0,1.0,87,0.00,,,0.00,weatherlink.com 1.10,2013-03-07 13:27:00,
2013-03-07 07:42:00,49.1,45.0,30.20,SSE,167,0.0,1.0,85,0.00,,,0.00,weatherlink.com 1.10,2013-03-07 13:42:00,
2013-03-07 07:57:00,51.1,45.0,30.22,SSE,167,0.0,2.0,81,0.00,,,0.00,weatherlink.com 1.10,2013-03-07 13:57:00,
2013-03-07 08:12:00,53.5,46.0,30.22,SSE,167,1.0,3.0,76,0.00,,,0.00,weatherlink.com 1.10,2013-03-07 14:12:00,
2013-03-07 08:27:00,55.6,46.0,30.23,SSW,196,0.0,4.0,71,0.00,,,0.00,weatherlink.com 1.10,2013-03-07 14:27:00,
2013-03-07 08:42:00,57.2,47.0,30.23,SSW,209,0.0,3.0,68,0.00,,,0.00,weatherlink.com 1.10,2013-03-07 14:42:00,
2013-03-07 08:57:00,58.9,47.0,30.23,ESE,110,1.0,4.0,66,0.00,,,0.00,weatherlink.com 1.10,2013-03-07 14:57:00,
2013-03-07 09:12:00,60.0,47.0,30.23,SSW,205,2.0,4.0,63,0.00,,,0.00,weatherlink.com 1.10,2013-03-07 15:12:00,
2013-03-07 09:27:00,62.3,48.0,30.23,South,186,0.0,4.0,60,0.00,,,0.00,weatherlink.com 1.10,2013-03-07 15:27:00,
2013-03-07 09:42:00,61.8,47.0,30.23,SSW,207,3.0,12.0,58,0.00,,,0.00,weatherlink.com 1.10,2013-03-07 15:42:00,
2013-03-07 09:57:00,62.7,47.0,30.23,SE,126,3.0,11.0,58,0.00,,,0.00,weatherlink.com 1.10,2013-03-07 15:57:00,
2013-03-07 10:12:00,64.5,47.0,30.23,ESE,123,7.0,11.0,54,0.00,,,0.00,weatherlink.com 1.10,2013-03-07 16:12:00,
2013-03-07 10:27:00,64.6,47.0,30.23,South,182,4.0,12.0,54,0.00,,,0.00,weatherlink.com 1.10,2013-03-07 16:27:00,
2013-03-07 10:42:00,66.3,47.0,30.23,ESE,123,8.0,11.0,51,0.00,,,0.00,weatherlink.com 1.10,2013-03-07 16:42:00,
2013-03-07 10:57:00,66.6,46.0,30.22,South,171,5.0,15.0,47,0.00,,,0.00,weatherlink.com 1.10,2013-03-07 16:57:00,
2013-03-07 11:12:00,65.9,47.0,30.23,South,179,3.0,10.0,51,0.00,,,0.00,weatherlink.com 1.10,2013-03-07 17:12:00,
2013-03-07 11:27:00,67.7,48.0,30.22,SSE,150,4.0,11.0,49,0.00,,,0.00,weatherlink.com 1.10,2013-03-07 17:27:00,
2013-03-07 11:42:00,68.3,48.0,30.22,WNW,288,2.0,9.0,49,0.00,,,0.00,weatherlink.com 1.10,2013-03-07 17:42:00,
2013-03-07 11:57:00,68.7,48.0,30.21,SSE,149,3.0,13.0,47,0.00,,,0.00,weatherlink.com 1.10,2013-03-07 17:57:00,
2013-03-07 12:13:00,69.9,47.0,30.21,ESE,118,1.0,9.0,44,0.00,,,0.00,weatherlink.com 1.10,2013-03-07 18:13:00,
2013-03-07 12:27:00,70.8,47.0,30.20,ESE,106,3.0,10.0,43,0.00,,,0.00,weatherlink.com 1.10,2013-03-07 18:27:00,
2013-03-07 12:43:00,70.9,46.0,30.19,SE,134,4.0,9.0,41,0.00,,,0.00,weatherlink.com 1.10,2013-03-07 18:43:00,
2013-03-07 12:58:00,71.3,45.0,30.18,SW,217,2.0,10.0,39,0.00,,,0.00,weatherlink.com 1.10,2013-03-07 18:58:00,
2013-03-07 13:13:00,71.9,45.0,30.17,NW,310,1.0,10.0,38,0.00,,,0.00,weatherlink.com 1.10,2013-03-07 19:13:00,
2013-03-07 13:28:00,72.6,45.0,30.17,SE,134,2.0,10.0,38,0.00,,,0.00,weatherlink.com 1.10,2013-03-07 19:28:00,
2013-03-07 13:43:00,72.6,45.0,30.16,SE,130,5.0,10.0,38,0.00,,,0.00,weatherlink.com 1.10,2013-03-07 19:43:00,
2013-03-07 13:58:00,72.4,45.0,30.16,ESE,104,4.0,13.0,38,0.00,,,0.00,weatherlink.com 1.10,2013-03-07 19:58:00,
2013-03-07 14:28:00,72.3,47.0,30.15,SSE,162,2.0,10.0,41,0.00,,,0.00,weatherlink.com 1.10,2013-03-07 20:28:00,
2013-03-07 14:43:00,72.1,48.0,30.14,SSE,157,1.0,8.0,42,0.00,,,0.00,weatherlink.com 1.10,2013-03-07 20:43:00,
2013-03-07 14:58:00,71.5,48.0,30.14,South,187,4.0,11.0,44,0.00,,,0.00,weatherlink.com 1.10,2013-03-07 20:58:00,
2013-03-07 15:13:00,70.9,49.0,30.13,SSE,159,7.0,14.0,46,0.00,,,0.00,weatherlink.com 1.10,2013-03-07 21:13:00,
2013-03-07 15:28:00,70.1,49.0,30.13,South,182,9.0,13.0,47,0.00,,,0.00,weatherlink.com 1.10,2013-03-07 21:28:00,
2013-03-07 15:43:00,70.4,49.0,30.13,East,98,1.0,13.0,47,0.00,,,0.00,weatherlink.com 1.10,2013-03-07 21:43:00,
2013-03-07 15:58:00,69.3,49.0,30.13,SSW,209,3.0,12.0,49,0.00,,,0.00,weatherlink.com 1.10,2013-03-07 21:58:00,
2013-03-07 16:13:00,68.8,49.0,30.13,SE,140,7.0,12.0,50,0.00,,,0.00,weatherlink.com 1.10,2013-03-07 22:13:00,
2013-03-07 16:28:00,68.5,50.0,30.13,SSE,156,5.0,14.0,51,0.00,,,0.00,weatherlink.com 1.10,2013-03-07 22:28:00,
2013-03-07 16:43:00,67.5,49.0,30.13,SSW,192,1.0,10.0,51,0.00,,,0.00,weatherlink.com 1.10,2013-03-07 22:43:00,
2013-03-07 16:58:00,66.8,49.0,30.14,SE,134,6.0,14.0,53,0.00,,,0.00,weatherlink.com 1.10,2013-03-07 22:58:00,
2013-03-07 17:28:00,65.3,49.0,30.14,SSE,149,3.0,9.0,57,0.00,,,0.00,weatherlink.com 1.10,2013-03-07 23:28:00,
2013-03-07 17:43:00,64.3,49.0,30.14,SE,143,5.0,14.0,58,0.00,,,0.00,weatherlink.com 1.10,2013-03-07 23:43:00,
2013-03-07 17:58:00,63.8,49.0,30.14,SW,234,3.0,12.0,58,0.00,,,0.00,weatherlink.com 1.10,2013-03-07 23:58:00,
2013-03-07 18:13:00,63.2,49.0,30.14,WSW,239,3.0,9.0,60,0.00,,,0.00,weatherlink.com 1.10,2013-03-08 00:13:00,
2013-03-07 18:28:00,62.5,49.0,30.15,ESE,121,5.0,9.0,62,0.00,,,0.00,weatherlink.com 1.10,2013-03-08 00:28:00,
2013-03-07 18:43:00,61.8,49.0,30.15,East,94,1.0,8.0,64,0.00,,,0.00,weatherlink.com 1.10,2013-03-08 00:43:00,
2013-03-07 18:58:00,61.2,49.0,30.16,SE,146,2.0,9.0,65,0.00,,,0.00,weatherlink.com 1.10,2013-03-08 00:58:00,
2013-03-07 19:13:00,60.7,50.0,30.17,ENE,67,1.0,7.0,67,0.00,,,0.00,weatherlink.com 1.10,2013-03-08 01:13:00,
2013-03-07 19:28:00,60.1,49.0,30.17,SE,135,1.0,5.0,68,0.00,,,0.00,weatherlink.com 1.10,2013-03-08 01:28:00,
2013-03-07 19:43:00,59.6,50.0,30.17,SSE,161,0.0,5.0,70,0.00,,,0.00,weatherlink.com 1.10,2013-03-08 01:43:00,
2013-03-07 19:58:00,59.1,50.0,30.17,SSW,192,1.0,6.0,71,0.00,,,0.00,weatherlink.com 1.10,2013-03-08 01:58:00,
2013-03-07 20:13:00,58.6,50.0,30.16,SE,142,1.0,4.0,72,0.00,,,0.00,weatherlink.com 1.10,2013-03-08 02:13:00,
2013-03-07 20:28:00,58.3,50.0,30.16,SSE,158,0.0,6.0,73,0.00,,,0.00,weatherlink.com 1.10,2013-03-08 02:28:00,
2013-03-07 20:43:00,58.2,50.0,30.16,SSE,154,0.0,3.0,74,0.00,,,0.00,weatherlink.com 1.10,2013-03-08 02:43:00,
2013-03-07 20:58:00,58.0,50.0,30.17,South,173,2.0,4.0,74,0.00,,,0.00,weatherlink.com 1.10,2013-03-08 02:58:00,
2013-03-07 21:13:00,57.7,50.0,30.16,South,177,0.0,3.0,75,0.00,,,0.00,weatherlink.com 1.10,2013-03-08 03:13:00,
2013-03-07 21:28:00,57.3,50.0,30.16,South,177,0.0,3.0,76,0.00,,,0.00,weatherlink.com 1.10,2013-03-08 03:28:00,
2013-03-07 21:43:00,57.0,50.0,30.16,South,177,1.0,2.0,76,0.00,,,0.00,weatherlink.com 1.10,2013-03-08 03:43:00,
2013-03-07 21:58:00,56.8,50.0,30.16,SSE,161,3.0,4.0,78,0.00,,,0.00,weatherlink.com 1.10,2013-03-08 03:58:00,
2013-03-07 22:13:00,56.7,50.0,30.16,SSE,152,1.0,3.0,79,0.00,,,0.00,weatherlink.com 1.10,2013-03-08 04:13:00,
2013-03-07 22:28:00,56.5,50.0,30.16,SSE,159,1.0,4.0,80,0.00,,,0.00,weatherlink.com 1.10,2013-03-08 04:28:00,
2013-03-07 22:43:00,56.4,51.0,30.16,South,183,2.0,3.0,81,0.00,,,0.00,weatherlink.com 1.10,2013-03-08 04:43:00,
2013-03-07 22:58:00,56.3,51.0,30.15,ESE,113,0.0,4.0,82,0.00,,,0.00,weatherlink.com 1.10,2013-03-08 04:58:00,
2013-03-07 23:13:00,56.2,51.0,30.14,SSE,154,1.0,4.0,82,0.00,,,0.00,weatherlink.com 1.10,2013-03-08 05:13:00,
2013-03-07 23:28:00,56.1,51.0,30.15,South,183,0.0,5.0,84,0.00,,,0.00,weatherlink.com 1.10,2013-03-08 05:28:00,
2013-03-07 23:43:00,56.3,52.0,30.15,SE,135,0.0,6.0,84,0.00,,,0.00,weatherlink.com 1.10,2013-03-08 05:43:00,
2013-03-07 23:58:00,56.5,52.0,30.15,SE,132,1.0,6.0,85,0.00,,,0.00,weatherlink.com 1.10,2013-03-08 05:58:00,